Location: Be?chatów
(51.3665°N, 19.3745°E)
Time: 08:45:51
(UTC+00:00)

Cosmos 2082 Rocket - Pass Details

Date: 19 May 2025
Orbit: 832 x 853 km, 71.0° (Epoch: 16 June)

Event Time Altitude Azimuth Distance (km) Brightness Sun altitude
Exits shadow 21:41:57 14° 217° (SW) 2,184 4.0 -17.6°
Maximum altitude 21:46:51 74° 302° (WNW) 872 2.3 -17.7°
Drops below altitude 10° 21:52:30 10° 28° (NNE) 2,460 5.3 -17.9°
Sets 21:54:58 0° 30° (NNE) 3,401 6.1 -18.0°
